Time,TemperatureF,DewpointF,PressureIn,WindDirection,WindDirectionDegrees,WindSpeedMPH,WindSpeedGustMPH,Humidity,HourlyPrecipIn,Conditions,Clouds,dailyrainin,SoftwareType,DateUTC
2013-03-16 00:03:00,56.0,41.0,29.91,South,173,0.0,5.0,57,0.00,,,0.00,,2013-03-16 04:03:00,
2013-03-16 00:13:00,56.0,41.0,29.91,South,173,0.0,5.0,57,0.00,,,0.00,,2013-03-16 04:13:00,
2013-03-16 00:23:00,56.0,41.0,29.91,SSE,165,1.0,14.0,57,0.00,,,0.00,,2013-03-16 04:23:00,
2013-03-16 00:33:00,55.0,41.0,29.90,SSE,165,2.0,6.0,59,0.00,,,0.00,,2013-03-16 04:33:00,
2013-03-16 00:43:00,55.0,41.0,29.90,SSE,165,2.0,6.0,59,0.00,,,0.00,,2013-03-16 04:43:00,
2013-03-16 00:52:00,54.0,40.0,29.89,SSE,165,2.0,5.0,60,0.00,,,0.00,,2013-03-16 04:52:00,
2013-03-16 01:02:00,53.0,40.0,29.89,South,172,3.0,7.0,62,0.00,,,0.00,,2013-03-16 05:02:00,
2013-03-16 01:12:00,53.0,40.0,29.89,South,172,3.0,7.0,62,0.00,,,0.00,,2013-03-16 05:12:00,
2013-03-16 01:22:00,52.0,40.0,29.88,South,169,3.0,7.0,64,0.00,,,0.00,,2013-03-16 05:22:00,
2013-03-16 01:32:00,52.0,40.0,29.88,South,173,1.0,6.0,64,0.00,,,0.00,,2013-03-16 05:32:00,
2013-03-16 01:42:00,52.0,40.0,29.88,South,173,1.0,6.0,64,0.00,,,0.00,,2013-03-16 05:42:00,
2013-03-16 01:52:00,52.0,40.0,29.88,South,173,0.0,6.0,64,0.00,,,0.00,,2013-03-16 05:52:00,
2013-03-16 02:02:00,52.0,41.0,29.87,South,173,1.0,5.0,65,0.00,,,0.00,,2013-03-16 06:02:00,
2013-03-16 02:12:00,52.0,41.0,29.87,South,173,1.0,5.0,65,0.00,,,0.00,,2013-03-16 06:12:00,
2013-03-16 02:22:00,53.0,41.0,29.86,SSE,168,3.0,14.0,64,0.00,,,0.00,,2013-03-16 06:22:00,
2013-03-16 02:32:00,53.0,41.0,29.86,South,172,3.0,9.0,63,0.00,,,0.00,,2013-03-16 06:32:00,
2013-03-16 02:42:00,53.0,41.0,29.86,South,172,3.0,9.0,63,0.00,,,0.00,,2013-03-16 06:42:00,
2013-03-16 02:52:00,54.0,42.0,29.86,South,169,2.0,12.0,63,0.00,,,0.00,,2013-03-16 06:52:00,
2013-03-16 03:02:00,54.0,41.0,29.87,South,169,0.0,12.0,62,0.00,,,0.00,,2013-03-16 07:02:00,
2013-03-16 03:12:00,54.0,41.0,29.87,South,169,0.0,12.0,62,0.00,,,0.00,,2013-03-16 07:12:00,
2013-03-16 03:22:00,54.0,41.0,29.86,SE,131,2.0,13.0,62,0.00,,,0.00,,2013-03-16 07:22:00,
2013-03-16 03:32:00,54.0,41.0,29.86,SE,131,2.0,13.0,62,0.00,,,0.00,,2013-03-16 07:32:00,
2013-03-16 03:42:00,54.0,41.0,29.86,SE,131,2.0,13.0,62,0.00,,,0.00,,2013-03-16 07:42:00,
2013-03-16 03:52:00,54.0,41.0,29.86,South,169,2.0,9.0,61,0.00,,,0.00,,2013-03-16 07:52:00,
2013-03-16 04:03:00,54.0,41.0,29.85,South,172,4.0,10.0,61,0.00,,,0.00,,2013-03-16 08:03:00,
2013-03-16 04:12:00,54.0,41.0,29.85,South,172,4.0,10.0,61,0.00,,,0.00,,2013-03-16 08:12:00,
2013-03-16 04:23:00,54.0,41.0,29.85,SSE,166,6.0,17.0,61,0.00,,,0.00,,2013-03-16 08:23:00,
2013-03-16 04:33:00,54.0,41.0,29.85,SSE,167,4.0,14.0,61,0.00,,,0.00,,2013-03-16 08:33:00,
2013-03-16 04:42:00,54.0,41.0,29.85,SSE,167,4.0,14.0,61,0.00,,,0.00,,2013-03-16 08:42:00,
2013-03-16 04:52:00,54.0,41.0,29.85,South,173,6.0,12.0,62,0.00,,,0.00,,2013-03-16 08:52:00,
2013-03-16 05:02:00,54.0,41.0,29.84,SSE,167,5.0,12.0,62,0.00,,,0.00,,2013-03-16 09:02:00,
2013-03-16 05:12:00,54.0,41.0,29.84,SSE,167,5.0,12.0,62,0.00,,,0.00,,2013-03-16 09:12:00,
2013-03-16 05:22:00,54.0,41.0,29.84,SSE,165,3.0,15.0,62,0.00,,,0.00,,2013-03-16 09:22:00,
2013-03-16 05:33:00,54.0,41.0,29.84,South,170,5.0,15.0,62,0.00,,,0.00,,2013-03-16 09:33:00,
2013-03-16 05:42:00,54.0,41.0,29.84,South,170,5.0,15.0,62,0.00,,,0.00,,2013-03-16 09:42:00,
2013-03-16 05:52:00,54.0,41.0,29.84,SSE,168,4.0,22.0,61,0.00,,,0.00,,2013-03-16 09:52:00,
2013-03-16 06:03:00,53.0,40.0,29.85,South,170,2.0,12.0,62,0.00,,,0.00,,2013-03-16 10:03:00,
2013-03-16 06:12:00,53.0,40.0,29.85,South,170,2.0,12.0,62,0.00,,,0.00,,2013-03-16 10:12:00,
2013-03-16 06:23:00,54.0,41.0,29.85,South,169,4.0,13.0,62,0.00,,,0.00,,2013-03-16 10:23:00,
2013-03-16 06:32:00,54.0,41.0,29.85,South,169,4.0,13.0,62,0.00,,,0.00,,2013-03-16 10:32:00,
2013-03-16 06:42:00,54.0,41.0,29.85,South,169,4.0,13.0,62,0.00,,,0.00,,2013-03-16 10:42:00,
2013-03-16 06:52:00,54.0,41.0,29.85,South,173,3.0,14.0,61,0.00,,,0.00,,2013-03-16 10:52:00,
2013-03-16 07:03:00,54.0,41.0,29.85,South,170,2.0,13.0,61,0.00,,,0.00,,2013-03-16 11:03:00,
2013-03-16 07:12:00,54.0,41.0,29.85,South,170,2.0,13.0,61,0.00,,,0.00,,2013-03-16 11:12:00,
2013-03-16 07:22:00,54.0,41.0,29.85,SSE,167,5.0,19.0,61,0.00,,,0.00,,2013-03-16 11:22:00,
2013-03-16 07:33:00,54.0,41.0,29.85,South,174,5.0,15.0,61,0.00,,,0.00,,2013-03-16 11:33:00,
2013-03-16 07:43:00,54.0,41.0,29.85,South,174,5.0,15.0,61,0.00,,,0.00,,2013-03-16 11:43:00,
2013-03-16 07:52:00,54.0,41.0,29.85,South,173,4.0,15.0,61,0.00,,,0.00,,2013-03-16 11:52:00,
2013-03-16 08:02:00,54.0,40.0,29.85,SSE,166,5.0,15.0,60,0.00,,,0.00,,2013-03-16 12:02:00,
2013-03-16 08:12:00,54.0,40.0,29.85,SSE,166,5.0,15.0,60,0.00,,,0.00,,2013-03-16 12:12:00,
2013-03-16 08:22:00,54.0,40.0,29.86,South,173,3.0,14.0,60,0.00,,,0.00,,2013-03-16 12:22:00,
2013-03-16 08:32:00,54.0,40.0,29.85,South,172,4.0,14.0,60,0.00,,,0.00,,2013-03-16 12:32:00,
2013-03-16 08:42:00,54.0,40.0,29.85,South,172,4.0,14.0,60,0.00,,,0.00,,2013-03-16 12:42:00,
2013-03-16 08:52:00,54.0,40.0,29.85,South,169,4.0,16.0,59,0.00,,,0.00,,2013-03-16 12:52:00,
2013-03-16 09:02:00,55.0,41.0,29.85,South,172,3.0,11.0,59,0.00,,,0.00,,2013-03-16 13:02:00,
2013-03-16 09:12:00,55.0,41.0,29.85,South,172,3.0,11.0,59,0.00,,,0.00,,2013-03-16 13:12:00,
2013-03-16 09:22:00,54.0,40.0,29.85,South,176,4.0,11.0,59,0.00,,,0.00,,2013-03-16 13:22:00,
2013-03-16 09:32:00,54.0,40.0,29.86,SSE,168,4.0,14.0,59,0.00,,,0.00,,2013-03-16 13:32:00,
2013-03-16 09:42:00,54.0,40.0,29.86,SSE,168,4.0,14.0,59,0.00,,,0.00,,2013-03-16 13:42:00,
2013-03-16 09:52:00,55.0,41.0,29.86,SSE,167,3.0,14.0,58,0.00,,,0.00,,2013-03-16 13:52:00,
2013-03-16 10:03:00,56.0,41.0,29.86,SSE,167,3.0,15.0,57,0.00,,,0.00,,2013-03-16 14:03:00,
2013-03-16 10:12:00,56.0,41.0,29.86,SSE,167,3.0,15.0,57,0.00,,,0.00,,2013-03-16 14:12:00,
2013-03-16 10:22:00,58.0,41.0,29.86,South,172,4.0,16.0,54,0.00,,,0.00,,2013-03-16 14:22:00,
2013-03-16 10:32:00,58.0,42.0,29.86,SSE,167,5.0,19.0,55,0.00,,,0.00,,2013-03-16 14:32:00,
2013-03-16 10:42:00,58.0,42.0,29.86,SSE,167,5.0,19.0,55,0.00,,,0.00,,2013-03-16 14:42:00,
2013-03-16 10:52:00,59.0,42.0,29.85,SSE,165,4.0,18.0,54,0.00,,,0.00,,2013-03-16 14:52:00,
2013-03-16 11:03:00,60.0,43.0,29.85,South,174,4.0,18.0,53,0.00,,,0.00,,2013-03-16 15:03:00,
2013-03-16 11:13:00,60.0,43.0,29.85,South,174,4.0,18.0,53,0.00,,,0.00,,2013-03-16 15:13:00,
2013-03-16 11:23:00,60.0,43.0,29.85,SE,131,4.0,17.0,53,0.00,,,0.00,,2013-03-16 15:23:00,
2013-03-16 11:33:00,62.0,44.0,29.85,South,174,3.0,15.0,52,0.00,,,0.00,,2013-03-16 15:33:00,
2013-03-16 11:43:00,62.0,44.0,29.85,South,174,3.0,15.0,52,0.00,,,0.00,,2013-03-16 15:43:00,
2013-03-16 11:53:00,62.0,44.0,29.85,South,170,4.0,16.0,52,0.00,,,0.00,,2013-03-16 15:53:00,
2013-03-16 12:03:00,63.0,44.0,29.84,South,169,4.0,22.0,50,0.00,,,0.00,,2013-03-16 16:03:00,
2013-03-16 12:13:00,63.0,44.0,29.84,South,169,4.0,22.0,50,0.00,,,0.00,,2013-03-16 16:13:00,
2013-03-16 12:23:00,63.0,44.0,29.84,SSE,165,3.0,19.0,50,0.00,,,0.00,,2013-03-16 16:23:00,
2013-03-16 12:33:00,65.0,45.0,29.84,South,172,5.0,13.0,49,0.00,,,0.00,,2013-03-16 16:33:00,
2013-03-16 12:42:00,65.0,45.0,29.84,South,172,5.0,13.0,49,0.00,,,0.00,,2013-03-16 16:42:00,
2013-03-16 12:53:00,65.0,44.0,29.83,South,174,5.0,12.0,47,0.00,,,0.00,,2013-03-16 16:53:00,
2013-03-16 13:03:00,67.0,47.0,29.83,South,173,3.0,13.0,48,0.00,,,0.00,,2013-03-16 17:03:00,
2013-03-16 13:13:00,67.0,47.0,29.83,South,173,3.0,13.0,48,0.00,,,0.00,,2013-03-16 17:13:00,
2013-03-16 13:23:00,66.0,45.0,29.83,SSE,158,7.0,19.0,46,0.00,,,0.00,,2013-03-16 17:23:00,
2013-03-16 13:33:00,65.0,43.0,29.82,South,172,8.0,21.0,45,0.00,,,0.00,,2013-03-16 17:33:00,
2013-03-16 13:42:00,65.0,43.0,29.82,South,172,8.0,21.0,45,0.00,,,0.00,,2013-03-16 17:42:00,
2013-03-16 13:52:00,67.0,45.0,29.82,SSE,167,4.0,22.0,45,0.00,,,0.00,,2013-03-16 17:52:00,
2013-03-16 14:03:00,67.0,44.0,29.82,South,174,10.0,24.0,43,0.00,,,0.00,,2013-03-16 18:03:00,
2013-03-16 14:13:00,67.0,44.0,29.82,South,174,10.0,24.0,43,0.00,,,0.00,,2013-03-16 18:13:00,
2013-03-16 14:23:00,68.0,44.0,29.81,South,172,4.0,16.0,42,0.00,,,0.00,,2013-03-16 18:23:00,
2013-03-16 14:33:00,68.0,44.0,29.81,South,178,9.0,22.0,42,0.00,,,0.00,,2013-03-16 18:33:00,
2013-03-16 14:43:00,68.0,44.0,29.81,South,178,9.0,22.0,42,0.00,,,0.00,,2013-03-16 18:43:00,
2013-03-16 14:52:00,69.0,44.0,29.80,South,172,7.0,18.0,40,0.00,,,0.00,,2013-03-16 18:52:00,
2013-03-16 15:02:00,69.0,44.0,29.80,South,173,6.0,22.0,40,0.00,,,0.00,,2013-03-16 19:02:00,
2013-03-16 15:12:00,69.0,44.0,29.80,South,173,6.0,22.0,40,0.00,,,0.00,,2013-03-16 19:12:00,
2013-03-16 15:22:00,69.0,43.0,29.80,South,173,8.0,21.0,39,0.00,,,0.00,,2013-03-16 19:22:00,
2013-03-16 15:33:00,69.0,44.0,29.79,South,173,7.0,17.0,40,0.00,,,0.00,,2013-03-16 19:33:00,
2013-03-16 15:42:00,69.0,44.0,29.79,South,173,7.0,17.0,40,0.00,,,0.00,,2013-03-16 19:42:00,
2013-03-16 15:52:00,71.0,45.0,29.79,South,170,2.0,10.0,39,0.00,,,0.00,,2013-03-16 19:52:00,
2013-03-16 16:02:00,71.0,45.0,29.79,South,170,2.0,15.0,39,0.00,,,0.00,,2013-03-16 20:02:00,
2013-03-16 16:12:00,71.0,45.0,29.79,South,170,2.0,15.0,39,0.00,,,0.00,,2013-03-16 20:12:00,
2013-03-16 16:22:00,71.0,44.0,29.79,South,173,3.0,18.0,38,0.00,,,0.00,,2013-03-16 20:22:00,
2013-03-16 16:33:00,71.0,43.0,29.78,South,169,5.0,15.0,36,0.00,,,0.00,,2013-03-16 20:33:00,
2013-03-16 16:42:00,71.0,43.0,29.78,South,169,5.0,15.0,36,0.00,,,0.00,,2013-03-16 20:42:00,
2013-03-16 16:52:00,70.0,43.0,29.78,SSE,167,4.0,15.0,37,0.00,,,0.00,,2013-03-16 20:52:00,
2013-03-16 17:02:00,70.0,43.0,29.78,SSE,167,4.0,15.0,37,0.00,,,0.00,,2013-03-16 21:02:00,
2013-03-16 17:12:00,70.0,43.0,29.78,SSE,167,4.0,15.0,37,0.00,,,0.00,,2013-03-16 21:12:00,
2013-03-16 17:23:00,71.0,43.0,29.78,South,170,3.0,14.0,37,0.00,,,0.00,,2013-03-16 21:23:00,
2013-03-16 17:33:00,70.0,43.0,29.78,SSE,165,5.0,10.0,37,0.00,,,0.00,,2013-03-16 21:33:00,
2013-03-16 17:43:00,70.0,43.0,29.78,SSE,165,5.0,10.0,37,0.00,,,0.00,,2013-03-16 21:43:00,
2013-03-16 17:52:00,70.0,43.0,29.78,SSE,167,5.0,13.0,38,0.00,,,0.00,,2013-03-16 21:52:00,
2013-03-16 18:03:00,69.0,43.0,29.79,SSE,167,5.0,12.0,39,0.00,,,0.00,,2013-03-16 22:03:00,
2013-03-16 18:13:00,69.0,43.0,29.79,SSE,167,5.0,12.0,39,0.00,,,0.00,,2013-03-16 22:13:00,
2013-03-16 18:23:00,68.0,43.0,29.79,SSE,165,5.0,11.0,41,0.00,,,0.00,,2013-03-16 22:23:00,
2013-03-16 18:33:00,68.0,44.0,29.79,South,172,2.0,13.0,42,0.00,,,0.00,,2013-03-16 22:33:00,
2013-03-16 18:42:00,68.0,44.0,29.79,South,172,2.0,13.0,42,0.00,,,0.00,,2013-03-16 22:42:00,
2013-03-16 18:52:00,67.0,43.0,29.79,SSE,167,3.0,11.0,42,0.00,,,0.00,,2013-03-16 22:52:00,
2013-03-16 19:02:00,67.0,43.0,29.80,SSE,165,3.0,17.0,42,0.00,,,0.00,,2013-03-16 23:02:00,
2013-03-16 19:13:00,67.0,43.0,29.80,SSE,165,3.0,17.0,42,0.00,,,0.00,,2013-03-16 23:13:00,
2013-03-16 19:23:00,66.0,42.0,29.80,South,173,4.0,16.0,42,0.00,,,0.00,,2013-03-16 23:23:00,
2013-03-16 19:33:00,66.0,43.0,29.80,SSE,167,4.0,13.0,43,0.00,,,0.00,,2013-03-16 23:33:00,
2013-03-16 19:42:00,66.0,43.0,29.80,SSE,167,4.0,13.0,43,0.00,,,0.00,,2013-03-16 23:42:00,
2013-03-16 19:52:00,65.0,44.0,29.82,South,172,3.0,13.0,46,0.00,,,0.00,,2013-03-16 23:52:00,
2013-03-16 20:02:00,64.0,44.0,29.83,South,173,4.0,16.0,49,0.00,,,0.00,,2013-03-17 00:02:00,
2013-03-16 20:12:00,64.0,44.0,29.83,South,173,4.0,16.0,49,0.00,,,0.00,,2013-03-17 00:12:00,
2013-03-16 20:22:00,63.0,45.0,29.83,South,170,2.0,11.0,51,0.00,,,0.00,,2013-03-17 00:22:00,
2013-03-16 20:33:00,62.0,44.0,29.84,South,173,2.0,10.0,52,0.00,,,0.00,,2013-03-17 00:33:00,
2013-03-16 20:42:00,62.0,44.0,29.84,South,173,2.0,10.0,52,0.00,,,0.00,,2013-03-17 00:42:00,
2013-03-16 20:52:00,62.0,45.0,29.85,South,175,2.0,8.0,53,0.00,,,0.00,,2013-03-17 00:52:00,
2013-03-16 21:03:00,62.0,45.0,29.85,South,173,3.0,10.0,53,0.00,,,0.00,,2013-03-17 01:03:00,
2013-03-16 21:12:00,62.0,45.0,29.85,South,173,3.0,10.0,53,0.00,,,0.00,,2013-03-17 01:12:00,
2013-03-16 21:22:00,62.0,46.0,29.86,South,173,2.0,11.0,55,0.00,,,0.00,,2013-03-17 01:22:00,
2013-03-16 21:32:00,62.0,46.0,29.87,South,170,4.0,13.0,55,0.00,,,0.00,,2013-03-17 01:32:00,
2013-03-16 21:42:00,62.0,46.0,29.87,South,170,4.0,13.0,55,0.00,,,0.00,,2013-03-17 01:42:00,
2013-03-16 21:52:00,61.0,45.0,29.88,South,176,3.0,12.0,56,0.00,,,0.00,,2013-03-17 01:52:00,
2013-03-16 22:03:00,61.0,46.0,29.87,South,170,3.0,11.0,57,0.00,,,0.00,,2013-03-17 02:03:00,
2013-03-16 22:13:00,61.0,46.0,29.87,South,170,3.0,11.0,57,0.00,,,0.00,,2013-03-17 02:13:00,
2013-03-16 22:22:00,61.0,46.0,29.88,South,172,2.0,12.0,58,0.00,,,0.00,,2013-03-17 02:22:00,
2013-03-16 22:33:00,61.0,46.0,29.88,South,169,2.0,10.0,58,0.00,,,0.00,,2013-03-17 02:33:00,
2013-03-16 22:43:00,61.0,46.0,29.88,South,169,2.0,10.0,58,0.00,,,0.00,,2013-03-17 02:43:00,
2013-03-16 22:52:00,60.0,45.0,29.88,SSE,166,1.0,13.0,58,0.00,,,0.00,,2013-03-17 02:52:00,
2013-03-16 23:03:00,60.0,46.0,29.89,South,173,2.0,9.0,59,0.00,,,0.00,,2013-03-17 03:03:00,
2013-03-16 23:12:00,60.0,46.0,29.89,South,173,2.0,9.0,59,0.00,,,0.00,,2013-03-17 03:12:00,
2013-03-16 23:23:00,60.0,46.0,29.88,South,173,2.0,8.0,59,0.00,,,0.00,,2013-03-17 03:23:00,
2013-03-16 23:34:00,60.0,45.0,29.89,South,170,4.0,17.0,58,0.00,,,0.00,,2013-03-17 03:34:00,
2013-03-16 23:43:00,60.0,45.0,29.89,South,170,4.0,17.0,58,0.00,,,0.00,,2013-03-17 03:43:00,
2013-03-16 23:52:00,59.0,45.0,29.89,South,172,0.0,4.0,60,0.00,,,0.00,,2013-03-17 03:52:00,